Rockland, ME

4:41 PM EDT on March 27, 2017 (GMT -0400)
Knox County Regional

Weather History for KRKD - October, 2014

Change the Weather History Date:

Tuesday, October 14, 2014

  Actual Average Record
Temperature  
Mean Temperature 62 °F -  
Max Temperature 68 °F 53 °F 68 °F (2000)
Min Temperature 55 °F 39 °F 30 °F (2006)
Degree Days  
Heating Degree Days 4    
Growing Degree Days 12 (Base 50)    
Moisture  
Dew Point 57 °F    
Average Humidity 86    
Maximum Humidity 94    
Minimum Humidity 78    
Precipitation  
Precipitation 0.00 in - - ()
Sea Level Pressure  
Sea Level Pressure 30.18 in    
Wind  
Wind Speed 11 mph (SW)    
Max Wind Speed 20 mph    
Max Gust Speed 26 mph    
Visibility 10 miles    
Events      
Averages and records for this station are not official NWS values.
T = Trace of Precipitation, MM = Missing Value Source: NWS Daily Summary

Daily Weather History Graph

Daily Weather History Graph

Search for Another Location

Airport or City:

Trip Planner

Search our weather history database for the weather conditions in past years. The results will help you decide how hot, cold, wet, or windy it might be!

Date:

Astronomy

Oct. 14, 2014 Rise Set
Actual Time 6:49 AM EDT 5:54 PM EDT
Civil Twilight 6:20 AM EDT 6:23 PM EDT
Nautical Twilight 5:47 AM EDT 6:56 PM EDT
Astronomical Twilight 5:13 AM EDT 7:30 PM EDT
Moon 10:50 PM EDT (10/14) 12:54 PM EDT (10/14)
Length of Visible Light 12h 02m
Length of Day
11h 04m
Waning Gibbous, 61% of the Moon is Illuminated
Oct 14
Waning Gibbous
Oct 15
Last Quarter
Oct 23
New
Oct 30
First Quarter
Nov 6
Full

Hourly Weather History & Observations

Time (EDT) Temp. Dew Point Humidity Pressure Visibility Wind Dir Wind Speed Gust Speed Precip Events Conditions
12:15 AM 57.2 °F 53.6 °F 88% 30.22 in 10.0 mi SW 10.4 mph - N/A   Overcast
12:35 AM 57.2 °F 53.6 °F 88% 30.21 in 10.0 mi SW 12.7 mph 18.4 mph N/A   Overcast
12:55 AM 57.2 °F 53.6 °F 88% 30.21 in 10.0 mi SW 11.5 mph 18.4 mph N/A   Overcast
1:15 AM 57.2 °F 53.6 °F 88% 30.21 in 10.0 mi SW 11.5 mph - N/A   Overcast
1:35 AM 57.2 °F 53.6 °F 88% 30.21 in 10.0 mi SW 9.2 mph - N/A   Mostly Cloudy
1:55 AM 57.2 °F 53.6 °F 88% 30.21 in 10.0 mi SW 10.4 mph 16.1 mph N/A   Overcast
2:15 AM 57.2 °F 53.6 °F 88% 30.21 in 10.0 mi SW 9.2 mph - N/A   Mostly Cloudy
2:35 AM 57.2 °F 53.6 °F 88% 30.21 in 10.0 mi SW 10.4 mph - N/A   Partly Cloudy
2:55 AM 57.2 °F 53.6 °F 88% 30.21 in 10.0 mi SW 9.2 mph - N/A   Mostly Cloudy
3:15 AM 57.2 °F 53.6 °F 88% 30.21 in 10.0 mi SW 9.2 mph - N/A   Overcast
3:35 AM 57.2 °F 53.6 °F 88% 30.21 in 10.0 mi SW 9.2 mph - N/A   Overcast
3:55 AM 57.2 °F 53.6 °F 88% 30.21 in 10.0 mi SW 8.1 mph - N/A   Scattered Clouds
4:15 AM 55.4 °F 53.6 °F 94% 30.21 in 10.0 mi SW 6.9 mph - N/A   Partly Cloudy
4:35 AM 55.4 °F 53.6 °F 94% 30.21 in 10.0 mi South 5.8 mph - N/A   Partly Cloudy
4:55 AM 55.4 °F 53.6 °F 94% 30.21 in 10.0 mi SSW 4.6 mph - N/A   Clear
5:15 AM 55.4 °F 53.6 °F 94% 30.21 in 10.0 mi SW 5.8 mph - N/A   Clear
5:35 AM 55.4 °F 53.6 °F 94% 30.21 in 10.0 mi SSW 5.8 mph - N/A   Clear
5:55 AM 55.4 °F 53.6 °F 94% 30.21 in 10.0 mi SW 6.9 mph - N/A   Partly Cloudy
6:15 AM 55.4 °F 53.6 °F 94% 30.21 in 10.0 mi SSW 5.8 mph - N/A   Scattered Clouds
6:35 AM 55.4 °F 53.6 °F 94% 30.21 in 10.0 mi SSW 4.6 mph - N/A   Mostly Cloudy
6:55 AM 57.2 °F 53.6 °F 88% 30.22 in 10.0 mi SW 5.8 mph - N/A   Overcast
7:15 AM 57.2 °F 55.4 °F 94% 30.22 in 10.0 mi SW 9.2 mph 17.3 mph N/A   Overcast
7:35 AM 59.0 °F 53.6 °F 82% 30.21 in 10.0 mi SSW 9.2 mph - N/A   Overcast
7:55 AM 59.0 °F 55.4 °F 88% 30.21 in 10.0 mi SSW 8.1 mph 16.1 mph N/A   Overcast
8:15 AM 59.0 °F 55.4 °F 88% 30.21 in 10.0 mi SW 9.2 mph - N/A   Overcast
8:35 AM 60.8 °F 55.4 °F 82% 30.21 in 10.0 mi SW 6.9 mph 16.1 mph N/A   Overcast
8:55 AM 60.8 °F 55.4 °F 82% 30.21 in 10.0 mi SW 9.2 mph 17.3 mph N/A   Mostly Cloudy
9:15 AM 62.6 °F 57.2 °F 82% 30.22 in 10.0 mi WSW 15.0 mph - N/A   Overcast
9:35 AM 62.6 °F 57.2 °F 82% 30.22 in 10.0 mi WSW 13.8 mph 19.6 mph N/A   Overcast
9:55 AM 62.6 °F 57.2 °F 82% 30.21 in 10.0 mi SW 11.5 mph 23.0 mph N/A   Mostly Cloudy
10:15 AM 62.6 °F 57.2 °F 82% 30.21 in 10.0 mi SW 13.8 mph 20.7 mph N/A   Overcast
10:35 AM 62.6 °F 57.2 °F 82% 30.21 in 10.0 mi SW 19.6 mph 26.5 mph N/A   Overcast
10:55 AM 62.6 °F 57.2 °F 82% 30.21 in 10.0 mi WSW 10.4 mph - N/A   Overcast
11:15 AM 62.6 °F 57.2 °F 82% 30.20 in 10.0 mi WSW 11.5 mph - N/A   Overcast
11:35 AM 62.6 °F 57.2 °F 82% 30.20 in 10.0 mi WSW 12.7 mph - N/A   Overcast
11:55 AM 62.6 °F 57.2 °F 82% 30.19 in 10.0 mi WSW 17.3 mph - N/A   Overcast
12:15 PM 62.6 °F 57.2 °F 82% 30.18 in 10.0 mi WSW 15.0 mph 19.6 mph N/A   Overcast
12:35 PM 62.6 °F 57.2 °F 82% 30.18 in 10.0 mi SW 16.1 mph 24.2 mph N/A   Overcast
12:55 PM 62.6 °F 57.2 °F 82% 30.17 in 10.0 mi WSW 12.7 mph - N/A   Overcast
1:15 PM 62.6 °F 59.0 °F 88% 30.17 in 10.0 mi WSW 12.7 mph - N/A   Overcast
1:35 PM 64.4 °F 60.8 °F 88% 30.16 in 10.0 mi SW 12.7 mph 16.1 mph N/A   Overcast
1:55 PM 66.2 °F 60.8 °F 83% 30.15 in 10.0 mi SW 13.8 mph 18.4 mph N/A   Overcast
2:15 PM 66.2 °F 60.8 °F 83% 30.15 in 10.0 mi WSW 13.8 mph 19.6 mph N/A   Overcast
2:35 PM 68.0 °F 60.8 °F 78% 30.14 in 10.0 mi SW 15.0 mph 25.3 mph N/A   Mostly Cloudy
2:55 PM 66.2 °F 60.8 °F 83% 30.14 in 10.0 mi SSW 9.2 mph 20.7 mph N/A   Scattered Clouds
3:15 PM 68.0 °F 60.8 °F 78% 30.14 in 10.0 mi SW 16.1 mph 24.2 mph N/A   Scattered Clouds
3:35 PM 68.0 °F 60.8 °F 78% 30.14 in 10.0 mi SSW 11.5 mph 19.6 mph N/A   Clear
3:55 PM 66.2 °F 60.8 °F 83% 30.14 in 10.0 mi SSW 11.5 mph 19.6 mph N/A   Clear
4:15 PM 64.4 °F 60.8 °F 88% 30.14 in 10.0 mi SSW 9.2 mph 16.1 mph N/A   Clear
4:35 PM 64.4 °F 60.8 °F 88% 30.14 in 10.0 mi SSW 13.8 mph 20.7 mph N/A   Clear
4:55 PM 64.4 °F 60.8 °F 88% 30.14 in 10.0 mi SW 15.0 mph 24.2 mph N/A   Clear
5:15 PM 64.4 °F 59.0 °F 83% 30.14 in 10.0 mi SW 13.8 mph 21.9 mph N/A   Clear
5:35 PM 62.6 °F 59.0 °F 88% 30.14 in 10.0 mi SSW 9.2 mph - N/A   Clear
5:55 PM 62.6 °F 59.0 °F 88% 30.14 in 10.0 mi SSW 10.4 mph - N/A   Clear
6:15 PM 62.6 °F 57.2 °F 82% 30.14 in 10.0 mi SSW 9.2 mph - N/A   Clear
6:35 PM 62.6 °F 57.2 °F 82% 30.15 in 10.0 mi SW 9.2 mph 18.4 mph N/A   Clear
6:55 PM 62.6 °F 57.2 °F 82% 30.15 in 10.0 mi SSW 15.0 mph - N/A   Clear
7:15 PM 62.6 °F 57.2 °F 82% 30.15 in 10.0 mi SSW 12.7 mph 17.3 mph N/A   Clear
7:35 PM 62.6 °F 57.2 °F 82% 30.14 in 10.0 mi SW 13.8 mph 17.3 mph N/A   Clear
7:55 PM 62.6 °F 57.2 °F 82% 30.15 in 10.0 mi SSW 11.5 mph - N/A   Clear
8:15 PM 62.6 °F 57.2 °F 82% 30.14 in 10.0 mi SSW 13.8 mph 18.4 mph N/A   Clear
8:35 PM 62.6 °F 57.2 °F 82% 30.14 in 10.0 mi SW 15.0 mph 25.3 mph N/A   Clear
8:55 PM 62.6 °F 57.2 °F 82% 30.14 in 10.0 mi SSW 10.4 mph 16.1 mph N/A   Clear
9:15 PM 62.6 °F 57.2 °F 82% 30.14 in 10.0 mi SW 11.5 mph 20.7 mph N/A   Clear
9:35 PM 62.6 °F 57.2 °F 82% 30.14 in 10.0 mi SW 10.4 mph - N/A   Clear
9:55 PM 60.8 °F 57.2 °F 88% 30.14 in 10.0 mi SW 10.4 mph - N/A   Clear
10:15 PM 62.6 °F 57.2 °F 82% 30.14 in 10.0 mi SW 9.2 mph 16.1 mph N/A   Clear
10:35 PM 62.6 °F 57.2 °F 82% 30.14 in 10.0 mi SW 11.5 mph 17.3 mph N/A   Clear
10:55 PM 62.6 °F 57.2 °F 82% 30.13 in 10.0 mi SW 6.9 mph - N/A   Clear
11:15 PM 62.6 °F 59.0 °F 88% 30.13 in 10.0 mi SW 6.9 mph - N/A   Clear
11:35 PM 62.6 °F 59.0 °F 88% 30.12 in 10.0 mi WSW 12.7 mph 18.4 mph N/A   Clear
11:55 PM 62.6 °F 59.0 °F 88% 30.12 in 10.0 mi SW 10.4 mph 21.9 mph N/A   Clear